owner,sensor,date,latitude,longitude,vertical_datum,sea_water_practical_salinity,qcFlag 
WAVCIS,ioos:station:WAVCIS:CSI16:2,2009-09-01T21:00:00Z,29.4012,-89.0355,1.0,30.851,11111222 
WAVCIS,ioos:station:WAVCIS:CSI16:2,2009-09-01T21:15:00Z,29.4012,-89.0355,1.0,30.569,11111222 
WAVCIS,ioos:station:WAVCIS:CSI16:2,2009-09-01T21:30:00Z,29.4012,-89.0355,1.0,29.92,11111222 
WAVCIS,ioos:station:WAVCIS:CSI16:2,2009-09-01T21:45:00Z,29.4012,-89.0355,1.0,29.848,11111222 
WAVCIS,ioos:station:WAVCIS:CSI16:2,2009-09-01T22:00:00Z,29.4012,-89.0355,1.0,29.604,11111222 
WAVCIS,ioos:station:WAVCIS:CSI16:2,2009-09-01T22:15:00Z,29.4012,-89.0355,1.0,29.851,11111222 
WAVCIS,ioos:station:WAVCIS:CSI16:2,2009-09-01T22:30:00Z,29.4012,-89.0355,1.0,29.265,11111222 
WAVCIS,ioos:station:WAVCIS:CSI16:2,2009-09-01T22:45:00Z,29.4012,-89.0355,1.0,29.62,11111222 
WAVCIS,ioos:station:WAVCIS:CSI16:2,2009-09-01T23:00:00Z,29.4012,-89.0355,1.0,29.449,11111222 
WAVCIS,ioos:station:WAVCIS:CSI16:2,2009-09-01T23:15:00Z,29.4012,-89.0355,1.0,29.536,11111222 
WAVCIS,ioos:station:WAVCIS:CSI16:2,2009-09-01T23:30:00Z,29.4012,-89.0355,1.0,29.527,11111222 
WAVCIS,ioos:station:WAVCIS:CSI16:2,2009-09-01T23:45:00Z,29.4012,-89.0355,1.0,29.592,11111222 
WAVCIS,ioos:station:WAVCIS:CSI16:2,2009-09-02T00:00:00Z,29.4012,-89.0355,1.0,29.809,11111222 
WAVCIS,ioos:station:WAVCIS:CSI16:2,2009-09-02T00:15:00Z,29.4012,-89.0355,1.0,29.819,11111222 
WAVCIS,ioos:station:WAVCIS:CSI16:2,2009-09-02T00:30:00Z,29.4012,-89.0355,1.0,29.864,11111222 
WAVCIS,ioos:station:WAVCIS:CSI16:2,2009-09-02T00:45:00Z,29.4012,-89.0355,1.0,30.146,11111222 
WAVCIS,ioos:station:WAVCIS:CSI16:2,2009-09-02T01:00:00Z,29.4012,-89.0355,1.0,30.401,11111222 
WAVCIS,ioos:station:WAVCIS:CSI16:2,2009-09-02T01:15:00Z,29.4012,-89.0355,1.0,30.693,11111222 
WAVCIS,ioos:station:WAVCIS:CSI16:2,2009-09-02T01:30:00Z,29.4012,-89.0355,1.0,30.872,11111222 
WAVCIS,ioos:station:WAVCIS:CSI16:2,2009-09-02T01:45:00Z,29.4012,-89.0355,1.0,30.965,11111222 
WAVCIS,ioos:station:WAVCIS:CSI16:2,2009-09-02T02:00:00Z,29.4012,-89.0355,1.0,31.143,11111222 
WAVCIS,ioos:station:WAVCIS:CSI16:2,2009-09-02T02:15:00Z,29.4012,-89.0355,1.0,31.41,11111222 
WAVCIS,ioos:station:WAVCIS:CSI16:2,2009-09-02T02:30:00Z,29.4012,-89.0355,1.0,31.017,11111222 
WAVCIS,ioos:station:WAVCIS:CSI16:2,2009-09-02T02:45:00Z,29.4012,-89.0355,1.0,30.914,11111222 
WAVCIS,ioos:station:WAVCIS:CSI16:2,2009-09-02T03:00:00Z,29.4012,-89.0355,1.0,31.096,11111222 
WAVCIS,ioos:station:WAVCIS:CSI16:2,2009-09-02T03:15:00Z,29.4012,-89.0355,1.0,31.353,11111222 
WAVCIS,ioos:station:WAVCIS:CSI16:2,2009-09-02T03:30:00Z,29.4012,-89.0355,1.0,31.041,11111222 
WAVCIS,ioos:station:WAVCIS:CSI16:2,2009-09-02T03:45:00Z,29.4012,-89.0355,1.0,31.381,11111222 
WAVCIS,ioos:station:WAVCIS:CSI16:2,2009-09-02T04:00:00Z,29.4012,-89.0355,1.0,31.574,11111222 
WAVCIS,ioos:station:WAVCIS:CSI16:2,2009-09-02T04:15:00Z,29.4012,-89.0355,1.0,31.656,11111222 
WAVCIS,ioos:station:WAVCIS:CSI16:2,2009-09-02T04:30:00Z,29.4012,-89.0355,1.0,31.83,11111222 
WAVCIS,ioos:station:WAVCIS:CSI16:2,2009-09-02T04:45:00Z,29.4012,-89.0355,1.0,31.843,11111222 
WAVCIS,ioos:station:WAVCIS:CSI16:2,2009-09-02T05:00:00Z,29.4012,-89.0355,1.0,31.811,11111222 
WAVCIS,ioos:station:WAVCIS:CSI16:2,2009-09-02T05:15:00Z,29.4012,-89.0355,1.0,31.733,11111222 
WAVCIS,ioos:station:WAVCIS:CSI16:2,2009-09-02T05:30:00Z,29.4012,-89.0355,1.0,31.738,11111222 
WAVCIS,ioos:station:WAVCIS:CSI16:2,2009-09-02T05:45:00Z,29.4012,-89.0355,1.0,31.73,11111222 
WAVCIS,ioos:station:WAVCIS:CSI16:2,2009-09-02T06:00:00Z,29.4012,-89.0355,1.0,31.787,11111222 
WAVCIS,ioos:station:WAVCIS:CSI16:2,2009-09-02T06:15:00Z,29.4012,-89.0355,1.0,31.799,11111222 
WAVCIS,ioos:station:WAVCIS:CSI16:2,2009-09-02T06:30:00Z,29.4012,-89.0355,1.0,31.764,11111222 
WAVCIS,ioos:station:WAVCIS:CSI16:2,2009-09-02T06:45:00Z,29.4012,-89.0355,1.0,31.782,11111222 
WAVCIS,ioos:station:WAVCIS:CSI16:2,2009-09-02T07:00:00Z,29.4012,-89.0355,1.0,31.804,11111222 
WAVCIS,ioos:station:WAVCIS:CSI16:2,2009-09-02T07:15:00Z,29.4012,-89.0355,1.0,31.791,11111222 
WAVCIS,ioos:station:WAVCIS:CSI16:2,2009-09-02T07:30:00Z,29.4012,-89.0355,1.0,31.736,11111222 
WAVCIS,ioos:station:WAVCIS:CSI16:2,2009-09-02T07:45:00Z,29.4012,-89.0355,1.0,31.75,11111222 
WAVCIS,ioos:station:WAVCIS:CSI16:2,2009-09-02T08:00:00Z,29.4012,-89.0355,1.0,31.854,11111222 
WAVCIS,ioos:station:WAVCIS:CSI16:2,2009-09-02T08:15:00Z,29.4012,-89.0355,1.0,31.88,11111222 
WAVCIS,ioos:station:WAVCIS:CSI16:2,2009-09-02T08:30:00Z,29.4012,-89.0355,1.0,31.9,11111222 
WAVCIS,ioos:station:WAVCIS:CSI16:2,2009-09-02T08:45:00Z,29.4012,-89.0355,1.0,31.941,11111222 
WAVCIS,ioos:station:WAVCIS:CSI16:2,2009-09-02T09:00:00Z,29.4012,-89.0355,1.0,31.961,11111222 
WAVCIS,ioos:station:WAVCIS:CSI16:2,2009-09-02T09:15:00Z,29.4012,-89.0355,1.0,31.969,11111222 
WAVCIS,ioos:station:WAVCIS:CSI16:2,2009-09-02T09:30:00Z,29.4012,-89.0355,1.0,31.944,11111222 
WAVCIS,ioos:station:WAVCIS:CSI16:2,2009-09-02T09:45:00Z,29.4012,-89.0355,1.0,31.93,11111222 
WAVCIS,ioos:station:WAVCIS:CSI16:2,2009-09-02T10:00:00Z,29.4012,-89.0355,1.0,31.99,11111222 
WAVCIS,ioos:station:WAVCIS:CSI16:2,2009-09-02T10:15:00Z,29.4012,-89.0355,1.0,31.942,11111222 
WAVCIS,ioos:station:WAVCIS:CSI16:2,2009-09-02T10:30:00Z,29.4012,-89.0355,1.0,31.743,11111222 
WAVCIS,ioos:station:WAVCIS:CSI16:2,2009-09-02T10:45:00Z,29.4012,-89.0355,1.0,31.695,11111222 
WAVCIS,ioos:station:WAVCIS:CSI16:2,2009-09-02T11:00:00Z,29.4012,-89.0355,1.0,31.902,11111222 
WAVCIS,ioos:station:WAVCIS:CSI16:2,2009-09-02T11:15:00Z,29.4012,-89.0355,1.0,31.809,11111222 
WAVCIS,ioos:station:WAVCIS:CSI16:2,2009-09-02T11:30:00Z,29.4012,-89.0355,1.0,31.719,11111222 
WAVCIS,ioos:station:WAVCIS:CSI16:2,2009-09-02T11:45:00Z,29.4012,-89.0355,1.0,31.709,11111222 
WAVCIS,ioos:station:WAVCIS:CSI16:2,2009-09-02T12:00:00Z,29.4012,-89.0355,1.0,31.837,11111222 
WAVCIS,ioos:station:WAVCIS:CSI16:2,2009-09-02T12:15:00Z,29.4012,-89.0355,1.0,31.722,11111222 
WAVCIS,ioos:station:WAVCIS:CSI16:2,2009-09-02T12:30:00Z,29.4012,-89.0355,1.0,31.72,11111222 
WAVCIS,ioos:station:WAVCIS:CSI16:2,2009-09-02T12:45:00Z,29.4012,-89.0355,1.0,31.84,11111222 
WAVCIS,ioos:station:WAVCIS:CSI16:2,2009-09-02T13:00:00Z,29.4012,-89.0355,1.0,31.847,11111222 
WAVCIS,ioos:station:WAVCIS:CSI16:2,2009-09-02T13:15:00Z,29.4012,-89.0355,1.0,31.857,11111222 
WAVCIS,ioos:station:WAVCIS:CSI16:2,2009-09-02T13:30:00Z,29.4012,-89.0355,1.0,31.864,11111222 
WAVCIS,ioos:station:WAVCIS:CSI16:2,2009-09-02T13:45:00Z,29.4012,-89.0355,1.0,31.9,11111222 
WAVCIS,ioos:station:WAVCIS:CSI16:2,2009-09-02T14:00:00Z,29.4012,-89.0355,1.0,31.879,11111222 
WAVCIS,ioos:station:WAVCIS:CSI16:2,2009-09-02T14:15:00Z,29.4012,-89.0355,1.0,31.816,11111222 
WAVCIS,ioos:station:WAVCIS:CSI16:2,2009-09-02T14:30:00Z,29.4012,-89.0355,1.0,31.812,11111222 
WAVCIS,ioos:station:WAVCIS:CSI16:2,2009-09-02T14:45:00Z,29.4012,-89.0355,1.0,31.811,11111222 
WAVCIS,ioos:station:WAVCIS:CSI16:2,2009-09-02T15:00:00Z,29.4012,-89.0355,1.0,31.82,11111222 
WAVCIS,ioos:station:WAVCIS:CSI16:2,2009-09-02T15:15:00Z,29.4012,-89.0355,1.0,31.77,11111222 
WAVCIS,ioos:station:WAVCIS:CSI16:2,2009-09-02T15:30:00Z,29.4012,-89.0355,1.0,31.708,11111222 
WAVCIS,ioos:station:WAVCIS:CSI16:2,2009-09-02T15:45:00Z,29.4012,-89.0355,1.0,31.619,11111222 
WAVCIS,ioos:station:WAVCIS:CSI16:2,2009-09-02T16:00:00Z,29.4012,-89.0355,1.0,31.537,11111222 
WAVCIS,ioos:station:WAVCIS:CSI16:2,2009-09-02T16:15:00Z,29.4012,-89.0355,1.0,31.414,11111222 
WAVCIS,ioos:station:WAVCIS:CSI16:2,2009-09-02T16:30:00Z,29.4012,-89.0355,1.0,31.302,11111222 
WAVCIS,ioos:station:WAVCIS:CSI16:2,2009-09-02T16:45:00Z,29.4012,-89.0355,1.0,31.238,11111222 
WAVCIS,ioos:station:WAVCIS:CSI16:2,2009-09-02T17:00:00Z,29.4012,-89.0355,1.0,31.167,11111222 
WAVCIS,ioos:station:WAVCIS:CSI16:2,2009-09-02T17:15:00Z,29.4012,-89.0355,1.0,31.17,11111222 
WAVCIS,ioos:station:WAVCIS:CSI16:2,2009-09-02T17:30:00Z,29.4012,-89.0355,1.0,30.973,11111222 
WAVCIS,ioos:station:WAVCIS:CSI16:2,2009-09-02T17:45:00Z,29.4012,-89.0355,1.0,30.86,11111222 
WAVCIS,ioos:station:WAVCIS:CSI16:2,2009-09-02T18:00:00Z,29.4012,-89.0355,1.0,30.66,11111222 
WAVCIS,ioos:station:WAVCIS:CSI16:2,2009-09-02T18:15:00Z,29.4012,-89.0355,1.0,30.504,11111222 
WAVCIS,ioos:station:WAVCIS:CSI16:2,2009-09-02T18:30:00Z,29.4012,-89.0355,1.0,30.333,11111222 
WAVCIS,ioos:station:WAVCIS:CSI16:2,2009-09-02T18:45:00Z,29.4012,-89.0355,1.0,30.191,11111222 
WAVCIS,ioos:station:WAVCIS:CSI16:2,2009-09-02T19:00:00Z,29.4012,-89.0355,1.0,30.011,11111222 
WAVCIS,ioos:station:WAVCIS:CSI16:2,2009-09-02T19:15:00Z,29.4012,-89.0355,1.0,29.872,11111222 
WAVCIS,ioos:station:WAVCIS:CSI16:2,2009-09-02T19:30:00Z,29.4012,-89.0355,1.0,29.804,11111222 
WAVCIS,ioos:station:WAVCIS:CSI16:2,2009-09-02T19:45:00Z,29.4012,-89.0355,1.0,29.79,11111222 
WAVCIS,ioos:station:WAVCIS:CSI16:2,2009-09-02T20:00:00Z,29.4012,-89.0355,1.0,29.841,11111222 
WAVCIS,ioos:station:WAVCIS:CSI16:2,2009-09-02T20:15:00Z,29.4012,-89.0355,1.0,29.883,11111222 
WAVCIS,ioos:station:WAVCIS:CSI16:2,2009-09-02T20:30:00Z,29.4012,-89.0355,1.0,29.909,11111222 
WAVCIS,ioos:station:WAVCIS:CSI16:2,2009-09-02T20:45:00Z,29.4012,-89.0355,1.0,29.927,11111222 
WAVCIS,ioos:station:WAVCIS:CSI16:2,2009-09-02T21:00:00Z,29.4012,-89.0355,1.0,29.945,11111222 
WAVCIS,ioos:station:WAVCIS:CSI16:2,2009-09-02T21:15:00Z,29.4012,-89.0355,1.0,30.009,11111222 
WAVCIS,ioos:station:WAVCIS:CSI16:2,2009-09-02T21:30:00Z,29.4012,-89.0355,1.0,29.999,11111222 
WAVCIS,ioos:station:WAVCIS:CSI16:2,2009-09-02T21:45:00Z,29.4012,-89.0355,1.0,30.121,11111222 
WAVCIS,ioos:station:WAVCIS:CSI16:2,2009-09-02T22:00:00Z,29.4012,-89.0355,1.0,30.144,11111222 
WAVCIS,ioos:station:WAVCIS:CSI16:2,2009-09-02T22:15:00Z,29.4012,-89.0355,1.0,30.17,11111222 
WAVCIS,ioos:station:WAVCIS:CSI16:2,2009-09-02T22:30:00Z,29.4012,-89.0355,1.0,30.201,11111222 
WAVCIS,ioos:station:WAVCIS:CSI16:2,2009-09-02T22:45:00Z,29.4012,-89.0355,1.0,30.274,11111222 
WAVCIS,ioos:station:WAVCIS:CSI16:2,2009-09-02T23:00:00Z,29.4012,-89.0355,1.0,30.32,11111222 
WAVCIS,ioos:station:WAVCIS:CSI16:2,2009-09-02T23:15:00Z,29.4012,-89.0355,1.0,30.442,11111222 
WAVCIS,ioos:station:WAVCIS:CSI16:2,2009-09-02T23:30:00Z,29.4012,-89.0355,1.0,30.442,11111222 
WAVCIS,ioos:station:WAVCIS:CSI16:2,2009-09-02T23:45:00Z,29.4012,-89.0355,1.0,30.429,11111222 
WAVCIS,ioos:station:WAVCIS:CSI16:2,2009-09-03T00:00:00Z,29.4012,-89.0355,1.0,30.364,11111222 
WAVCIS,ioos:station:WAVCIS:CSI16:2,2009-09-03T00:15:00Z,29.4012,-89.0355,1.0,30.24,11111222 
WAVCIS,ioos:station:WAVCIS:CSI16:2,2009-09-03T00:30:00Z,29.4012,-89.0355,1.0,30.261,11111222 
WAVCIS,ioos:station:WAVCIS:CSI16:2,2009-09-03T00:45:00Z,29.4012,-89.0355,1.0,30.223,11111222 
WAVCIS,ioos:station:WAVCIS:CSI16:2,2009-09-03T01:00:00Z,29.4012,-89.0355,1.0,30.248,11111222 
WAVCIS,ioos:station:WAVCIS:CSI16:2,2009-09-03T01:15:00Z,29.4012,-89.0355,1.0,30.286,11111222 
WAVCIS,ioos:station:WAVCIS:CSI16:2,2009-09-03T01:30:00Z,29.4012,-89.0355,1.0,30.274,11111222 
WAVCIS,ioos:station:WAVCIS:CSI16:2,2009-09-03T01:45:00Z,29.4012,-89.0355,1.0,30.281,11111222 
WAVCIS,ioos:station:WAVCIS:CSI16:2,2009-09-03T02:00:00Z,29.4012,-89.0355,1.0,30.287,11111222 
WAVCIS,ioos:station:WAVCIS:CSI16:2,2009-09-03T02:15:00Z,29.4012,-89.0355,1.0,30.282,11111222 
WAVCIS,ioos:station:WAVCIS:CSI16:2,2009-09-03T02:30:00Z,29.4012,-89.0355,1.0,30.341,11111222 
WAVCIS,ioos:station:WAVCIS:CSI16:2,2009-09-03T02:45:00Z,29.4012,-89.0355,1.0,30.376,11111222 
WAVCIS,ioos:station:WAVCIS:CSI16:2,2009-09-03T03:00:00Z,29.4012,-89.0355,1.0,30.421,11111222 
WAVCIS,ioos:station:WAVCIS:CSI16:2,2009-09-03T03:15:00Z,29.4012,-89.0355,1.0,30.463,11111222 
WAVCIS,ioos:station:WAVCIS:CSI16:2,2009-09-03T03:30:00Z,29.4012,-89.0355,1.0,30.516,11111222 
WAVCIS,ioos:station:WAVCIS:CSI16:2,2009-09-03T03:45:00Z,29.4012,-89.0355,1.0,30.559,11111222 
WAVCIS,ioos:station:WAVCIS:CSI16:2,2009-09-03T04:00:00Z,29.4012,-89.0355,1.0,30.576,11111222 
WAVCIS,ioos:station:WAVCIS:CSI16:2,2009-09-03T04:15:00Z,29.4012,-89.0355,1.0,30.605,11111222 
WAVCIS,ioos:station:WAVCIS:CSI16:2,2009-09-03T04:30:00Z,29.4012,-89.0355,1.0,30.626,11111222 
WAVCIS,ioos:station:WAVCIS:CSI16:2,2009-09-03T04:45:00Z,29.4012,-89.0355,1.0,30.674,11111222 
WAVCIS,ioos:station:WAVCIS:CSI16:2,2009-09-03T05:00:00Z,29.4012,-89.0355,1.0,30.702,11111222 
WAVCIS,ioos:station:WAVCIS:CSI16:2,2009-09-03T05:15:00Z,29.4012,-89.0355,1.0,30.706,11111222 
WAVCIS,ioos:station:WAVCIS:CSI16:2,2009-09-03T05:30:00Z,29.4012,-89.0355,1.0,30.718,11111222 
WAVCIS,ioos:station:WAVCIS:CSI16:2,2009-09-03T05:45:00Z,29.4012,-89.0355,1.0,30.729,11111222 
WAVCIS,ioos:station:WAVCIS:CSI16:2,2009-09-03T06:00:00Z,29.4012,-89.0355,1.0,30.741,11111222 
WAVCIS,ioos:station:WAVCIS:CSI16:2,2009-09-03T06:15:00Z,29.4012,-89.0355,1.0,30.747,11111222 
WAVCIS,ioos:station:WAVCIS:CSI16:2,2009-09-03T06:30:00Z,29.4012,-89.0355,1.0,30.749,11111222 
WAVCIS,ioos:station:WAVCIS:CSI16:2,2009-09-03T06:45:00Z,29.4012,-89.0355,1.0,30.765,11111222 
WAVCIS,ioos:station:WAVCIS:CSI16:2,2009-09-03T07:00:00Z,29.4012,-89.0355,1.0,30.779,11111222 
WAVCIS,ioos:station:WAVCIS:CSI16:2,2009-09-03T07:15:00Z,29.4012,-89.0355,1.0,30.798,11111222 
WAVCIS,ioos:station:WAVCIS:CSI16:2,2009-09-03T07:30:00Z,29.4012,-89.0355,1.0,30.821,11111222 
WAVCIS,ioos:station:WAVCIS:CSI16:2,2009-09-03T07:45:00Z,29.4012,-89.0355,1.0,30.832,11111222 
WAVCIS,ioos:station:WAVCIS:CSI16:2,2009-09-03T08:00:00Z,29.4012,-89.0355,1.0,30.838,11111222 
WAVCIS,ioos:station:WAVCIS:CSI16:2,2009-09-03T08:15:00Z,29.4012,-89.0355,1.0,30.843,11111222 
WAVCIS,ioos:station:WAVCIS:CSI16:2,2009-09-03T08:30:00Z,29.4012,-89.0355,1.0,30.855,11111222 
WAVCIS,ioos:station:WAVCIS:CSI16:2,2009-09-03T08:45:00Z,29.4012,-89.0355,1.0,30.863,11111222 
WAVCIS,ioos:station:WAVCIS:CSI16:2,2009-09-03T09:00:00Z,29.4012,-89.0355,1.0,30.866,11111222 
WAVCIS,ioos:station:WAVCIS:CSI16:2,2009-09-03T09:15:00Z,29.4012,-89.0355,1.0,30.866,11111222 
WAVCIS,ioos:station:WAVCIS:CSI16:2,2009-09-03T09:30:00Z,29.4012,-89.0355,1.0,30.866,11111222 
WAVCIS,ioos:station:WAVCIS:CSI16:2,2009-09-03T09:45:00Z,29.4012,-89.0355,1.0,30.865,11111222 
WAVCIS,ioos:station:WAVCIS:CSI16:2,2009-09-03T10:00:00Z,29.4012,-89.0355,1.0,30.865,11111222 
WAVCIS,ioos:station:WAVCIS:CSI16:2,2009-09-03T10:15:00Z,29.4012,-89.0355,1.0,30.916,11111222 
WAVCIS,ioos:station:WAVCIS:CSI16:2,2009-09-03T10:30:00Z,29.4012,-89.0355,1.0,30.96,11111222 
WAVCIS,ioos:station:WAVCIS:CSI16:2,2009-09-03T10:45:00Z,29.4012,-89.0355,1.0,30.99,11111222 
WAVCIS,ioos:station:WAVCIS:CSI16:2,2009-09-03T11:00:00Z,29.4012,-89.0355,1.0,31.006,11111222 
WAVCIS,ioos:station:WAVCIS:CSI16:2,2009-09-03T11:15:00Z,29.4012,-89.0355,1.0,31.015,11111222 
WAVCIS,ioos:station:WAVCIS:CSI16:2,2009-09-03T11:30:00Z,29.4012,-89.0355,1.0,31.026,11111222 
WAVCIS,ioos:station:WAVCIS:CSI16:2,2009-09-03T11:45:00Z,29.4012,-89.0355,1.0,31.034,11111222 
WAVCIS,ioos:station:WAVCIS:CSI16:2,2009-09-03T12:00:00Z,29.4012,-89.0355,1.0,31.043,11111222 
WAVCIS,ioos:station:WAVCIS:CSI16:2,2009-09-03T12:15:00Z,29.4012,-89.0355,1.0,31.064,11111222 
WAVCIS,ioos:station:WAVCIS:CSI16:2,2009-09-03T12:30:00Z,29.4012,-89.0355,1.0,31.064,11111222 
WAVCIS,ioos:station:WAVCIS:CSI16:2,2009-09-03T12:45:00Z,29.4012,-89.0355,1.0,31.07,11111222 
WAVCIS,ioos:station:WAVCIS:CSI16:2,2009-09-03T13:00:00Z,29.4012,-89.0355,1.0,31.065,11111222 
WAVCIS,ioos:station:WAVCIS:CSI16:2,2009-09-03T13:15:00Z,29.4012,-89.0355,1.0,31.073,11111222 
WAVCIS,ioos:station:WAVCIS:CSI16:2,2009-09-03T13:30:00Z,29.4012,-89.0355,1.0,31.074,11111222 
WAVCIS,ioos:station:WAVCIS:CSI16:2,2009-09-03T13:45:00Z,29.4012,-89.0355,1.0,31.085,11111222 
WAVCIS,ioos:station:WAVCIS:CSI16:2,2009-09-03T14:00:00Z,29.4012,-89.0355,1.0,31.103,11111222 
WAVCIS,ioos:station:WAVCIS:CSI16:2,2009-09-03T14:15:00Z,29.4012,-89.0355,1.0,31.094,11111222 
WAVCIS,ioos:station:WAVCIS:CSI16:2,2009-09-03T14:30:00Z,29.4012,-89.0355,1.0,31.098,11111222 
WAVCIS,ioos:station:WAVCIS:CSI16:2,2009-09-03T14:45:00Z,29.4012,-89.0355,1.0,31.098,11111222 
WAVCIS,ioos:station:WAVCIS:CSI16:2,2009-09-03T15:00:00Z,29.4012,-89.0355,1.0,31.096,11111222 
WAVCIS,ioos:station:WAVCIS:CSI16:2,2009-09-03T15:15:00Z,29.4012,-89.0355,1.0,31.109,11111222 
WAVCIS,ioos:station:WAVCIS:CSI16:2,2009-09-03T15:30:00Z,29.4012,-89.0355,1.0,31.132,11111222 
WAVCIS,ioos:station:WAVCIS:CSI16:2,2009-09-03T15:45:00Z,29.4012,-89.0355,1.0,31.135,11111222 
WAVCIS,ioos:station:WAVCIS:CSI16:2,2009-09-03T16:00:00Z,29.4012,-89.0355,1.0,31.139,11111222 
WAVCIS,ioos:station:WAVCIS:CSI16:2,2009-09-03T16:15:00Z,29.4012,-89.0355,1.0,31.142,11111222 
WAVCIS,ioos:station:WAVCIS:CSI16:2,2009-09-03T16:30:00Z,29.4012,-89.0355,1.0,31.13,11111222 
WAVCIS,ioos:station:WAVCIS:CSI16:2,2009-09-03T16:45:00Z,29.4012,-89.0355,1.0,31.124,11111222 
WAVCIS,ioos:station:WAVCIS:CSI16:2,2009-09-03T17:00:00Z,29.4012,-89.0355,1.0,31.119,11111222 
WAVCIS,ioos:station:WAVCIS:CSI16:2,2009-09-03T17:15:00Z,29.4012,-89.0355,1.0,31.106,11111222 
WAVCIS,ioos:station:WAVCIS:CSI16:2,2009-09-03T17:30:00Z,29.4012,-89.0355,1.0,31.092,11111222 
WAVCIS,ioos:station:WAVCIS:CSI16:2,2009-09-03T17:45:00Z,29.4012,-89.0355,1.0,31.084,11111222 
WAVCIS,ioos:station:WAVCIS:CSI16:2,2009-09-03T18:00:00Z,29.4012,-89.0355,1.0,31.078,11111222 
WAVCIS,ioos:station:WAVCIS:CSI16:2,2009-09-03T18:15:00Z,29.4012,-89.0355,1.0,31.059,11111222 
WAVCIS,ioos:station:WAVCIS:CSI16:2,2009-09-03T18:30:00Z,29.4012,-89.0355,1.0,31.051,11111222 
WAVCIS,ioos:station:WAVCIS:CSI16:2,2009-09-03T18:45:00Z,29.4012,-89.0355,1.0,31.02,11111222 
WAVCIS,ioos:station:WAVCIS:CSI16:2,2009-09-03T19:00:00Z,29.4012,-89.0355,1.0,30.984,11111222 
WAVCIS,ioos:station:WAVCIS:CSI16:2,2009-09-03T19:15:00Z,29.4012,-89.0355,1.0,30.961,11111222 
WAVCIS,ioos:station:WAVCIS:CSI16:2,2009-09-03T19:30:00Z,29.4012,-89.0355,1.0,30.94,11111222 
WAVCIS,ioos:station:WAVCIS:CSI16:2,2009-09-03T19:45:00Z,29.4012,-89.0355,1.0,30.868,11111222 
WAVCIS,ioos:station:WAVCIS:CSI16:2,2009-09-03T20:00:00Z,29.4012,-89.0355,1.0,30.77,11111222 
WAVCIS,ioos:station:WAVCIS:CSI16:2,2009-09-03T20:15:00Z,29.4012,-89.0355,1.0,30.535,11111222 
WAVCIS,ioos:station:WAVCIS:CSI16:2,2009-09-03T20:30:00Z,29.4012,-89.0355,1.0,30.555,11111222 
WAVCIS,ioos:station:WAVCIS:CSI16:2,2009-09-03T20:45:00Z,29.4012,-89.0355,1.0,30.619,11111222 
WAVCIS,ioos:station:WAVCIS:CSI16:2,2009-09-03T21:00:00Z,29.4012,-89.0355,1.0,30.617,11111222 
WAVCIS,ioos:station:WAVCIS:CSI16:2,2009-09-03T21:15:00Z,29.4012,-89.0355,1.0,30.568,11111222 
WAVCIS,ioos:station:WAVCIS:CSI16:2,2009-09-03T21:30:00Z,29.4012,-89.0355,1.0,30.557,11111222 
WAVCIS,ioos:station:WAVCIS:CSI16:2,2009-09-03T21:45:00Z,29.4012,-89.0355,1.0,30.587,11111222 
WAVCIS,ioos:station:WAVCIS:CSI16:2,2009-09-03T22:00:00Z,29.4012,-89.0355,1.0,30.605,11111222 
WAVCIS,ioos:station:WAVCIS:CSI16:2,2009-09-03T22:15:00Z,29.4012,-89.0355,1.0,30.622,11111222 
WAVCIS,ioos:station:WAVCIS:CSI16:2,2009-09-03T22:30:00Z,29.4012,-89.0355,1.0,30.634,11111222 
WAVCIS,ioos:station:WAVCIS:CSI16:2,2009-09-03T22:45:00Z,29.4012,-89.0355,1.0,30.636,11111222 
WAVCIS,ioos:station:WAVCIS:CSI16:2,2009-09-03T23:00:00Z,29.4012,-89.0355,1.0,30.642,11111222 
WAVCIS,ioos:station:WAVCIS:CSI16:2,2009-09-03T23:15:00Z,29.4012,-89.0355,1.0,30.673,11111222 
WAVCIS,ioos:station:WAVCIS:CSI16:2,2009-09-03T23:30:00Z,29.4012,-89.0355,1.0,30.74,11111222 
WAVCIS,ioos:station:WAVCIS:CSI16:2,2009-09-03T23:45:00Z,29.4012,-89.0355,1.0,30.809,11111222 
WAVCIS,ioos:station:WAVCIS:CSI16:2,2009-09-04T00:00:00Z,29.4012,-89.0355,1.0,30.862,11111222 
WAVCIS,ioos:station:WAVCIS:CSI16:2,2009-09-04T00:15:00Z,29.4012,-89.0355,1.0,30.855,11111222 
WAVCIS,ioos:station:WAVCIS:CSI16:2,2009-09-04T00:30:00Z,29.4012,-89.0355,1.0,30.863,11111222 
WAVCIS,ioos:station:WAVCIS:CSI16:2,2009-09-04T00:45:00Z,29.4012,-89.0355,1.0,30.885,11111222 
WAVCIS,ioos:station:WAVCIS:CSI16:2,2009-09-04T01:00:00Z,29.4012,-89.0355,1.0,30.909,11111222 
WAVCIS,ioos:station:WAVCIS:CSI16:2,2009-09-04T01:15:00Z,29.4012,-89.0355,1.0,30.997,11111222 
WAVCIS,ioos:station:WAVCIS:CSI16:2,2009-09-04T01:30:00Z,29.4012,-89.0355,1.0,31.084,11111222 
WAVCIS,ioos:station:WAVCIS:CSI16:2,2009-09-04T01:45:00Z,29.4012,-89.0355,1.0,31.123,11111222 
WAVCIS,ioos:station:WAVCIS:CSI16:2,2009-09-04T02:00:00Z,29.4012,-89.0355,1.0,31.135,11111222 
WAVCIS,ioos:station:WAVCIS:CSI16:2,2009-09-04T02:15:00Z,29.4012,-89.0355,1.0,31.186,11111222 
WAVCIS,ioos:station:WAVCIS:CSI16:2,2009-09-04T02:30:00Z,29.4012,-89.0355,1.0,31.192,11111222 
WAVCIS,ioos:station:WAVCIS:CSI16:2,2009-09-04T02:45:00Z,29.4012,-89.0355,1.0,31.184,11111222 
WAVCIS,ioos:station:WAVCIS:CSI16:2,2009-09-04T03:00:00Z,29.4012,-89.0355,1.0,31.179,11111222 
WAVCIS,ioos:station:WAVCIS:CSI16:2,2009-09-04T03:15:00Z,29.4012,-89.0355,1.0,31.177,11111222 
WAVCIS,ioos:station:WAVCIS:CSI16:2,2009-09-04T03:30:00Z,29.4012,-89.0355,1.0,31.176,11111222 
WAVCIS,ioos:station:WAVCIS:CSI16:2,2009-09-04T03:45:00Z,29.4012,-89.0355,1.0,31.177,11111222 
WAVCIS,ioos:station:WAVCIS:CSI16:2,2009-09-04T04:00:00Z,29.4012,-89.0355,1.0,31.185,11111222 
WAVCIS,ioos:station:WAVCIS:CSI16:2,2009-09-04T04:15:00Z,29.4012,-89.0355,1.0,31.202,11111222 
WAVCIS,ioos:station:WAVCIS:CSI16:2,2009-09-04T04:30:00Z,29.4012,-89.0355,1.0,31.217,11111222 
WAVCIS,ioos:station:WAVCIS:CSI16:2,2009-09-04T04:45:00Z,29.4012,-89.0355,1.0,31.215,11111222 
WAVCIS,ioos:station:WAVCIS:CSI16:2,2009-09-04T05:00:00Z,29.4012,-89.0355,1.0,31.214,11111222 
WAVCIS,ioos:station:WAVCIS:CSI16:2,2009-09-04T05:15:00Z,29.4012,-89.0355,1.0,31.212,11111222 
WAVCIS,ioos:station:WAVCIS:CSI16:2,2009-09-04T05:30:00Z,29.4012,-89.0355,1.0,31.213,11111222 
WAVCIS,ioos:station:WAVCIS:CSI16:2,2009-09-04T05:45:00Z,29.4012,-89.0355,1.0,31.209,11111222 
WAVCIS,ioos:station:WAVCIS:CSI16:2,2009-09-04T06:00:00Z,29.4012,-89.0355,1.0,31.209,11111222 
WAVCIS,ioos:station:WAVCIS:CSI16:2,2009-09-04T06:15:00Z,29.4012,-89.0355,1.0,31.224,11111222 
WAVCIS,ioos:station:WAVCIS:CSI16:2,2009-09-04T06:30:00Z,29.4012,-89.0355,1.0,31.213,11111222 
WAVCIS,ioos:station:WAVCIS:CSI16:2,2009-09-04T06:45:00Z,29.4012,-89.0355,1.0,31.209,11111222 
WAVCIS,ioos:station:WAVCIS:CSI16:2,2009-09-04T07:00:00Z,29.4012,-89.0355,1.0,31.212,11111222 
WAVCIS,ioos:station:WAVCIS:CSI16:2,2009-09-04T07:15:00Z,29.4012,-89.0355,1.0,31.212,11111222 
WAVCIS,ioos:station:WAVCIS:CSI16:2,2009-09-04T07:30:00Z,29.4012,-89.0355,1.0,31.214,11111222 
WAVCIS,ioos:station:WAVCIS:CSI16:2,2009-09-04T07:45:00Z,29.4012,-89.0355,1.0,31.215,11111222 
WAVCIS,ioos:station:WAVCIS:CSI16:2,2009-09-04T08:00:00Z,29.4012,-89.0355,1.0,31.22,11111222 
WAVCIS,ioos:station:WAVCIS:CSI16:2,2009-09-04T08:15:00Z,29.4012,-89.0355,1.0,31.229,11111222 
WAVCIS,ioos:station:WAVCIS:CSI16:2,2009-09-04T08:30:00Z,29.4012,-89.0355,1.0,31.24,11111222 
WAVCIS,ioos:station:WAVCIS:CSI16:2,2009-09-04T08:45:00Z,29.4012,-89.0355,1.0,31.247,11111222 
WAVCIS,ioos:station:WAVCIS:CSI16:2,2009-09-04T09:00:00Z,29.4012,-89.0355,1.0,31.25,11111222 
WAVCIS,ioos:station:WAVCIS:CSI16:2,2009-09-04T09:15:00Z,29.4012,-89.0355,1.0,31.248,11111222 
WAVCIS,ioos:station:WAVCIS:CSI16:2,2009-09-04T09:30:00Z,29.4012,-89.0355,1.0,31.247,11111222 
WAVCIS,ioos:station:WAVCIS:CSI16:2,2009-09-04T09:45:00Z,29.4012,-89.0355,1.0,31.251,11111222 
WAVCIS,ioos:station:WAVCIS:CSI16:2,2009-09-04T10:00:00Z,29.4012,-89.0355,1.0,31.26,11111222 
WAVCIS,ioos:station:WAVCIS:CSI16:2,2009-09-04T10:15:00Z,29.4012,-89.0355,1.0,31.251,11111222 
WAVCIS,ioos:station:WAVCIS:CSI16:2,2009-09-04T10:30:00Z,29.4012,-89.0355,1.0,31.243,11111222 
WAVCIS,ioos:station:WAVCIS:CSI16:2,2009-09-04T10:45:00Z,29.4012,-89.0355,1.0,31.248,11111222 
WAVCIS,ioos:station:WAVCIS:CSI16:2,2009-09-04T11:00:00Z,29.4012,-89.0355,1.0,31.257,11111222 
WAVCIS,ioos:station:WAVCIS:CSI16:2,2009-09-04T11:15:00Z,29.4012,-89.0355,1.0,31.253,11111222 
WAVCIS,ioos:station:WAVCIS:CSI16:2,2009-09-04T11:30:00Z,29.4012,-89.0355,1.0,31.251,11111222 
WAVCIS,ioos:station:WAVCIS:CSI16:2,2009-09-04T11:45:00Z,29.4012,-89.0355,1.0,31.241,11111222 
WAVCIS,ioos:station:WAVCIS:CSI16:2,2009-09-04T12:00:00Z,29.4012,-89.0355,1.0,31.219,11111222 
WAVCIS,ioos:station:WAVCIS:CSI16:2,2009-09-04T12:15:00Z,29.4012,-89.0355,1.0,31.163,11111222 